Dixon AP, Dixon, WY, WY

6:21 AM MDT on July 22, 2017 (GMT -0600)
Dixon AP, Dixon, WY

Weather History for KDWX - March, 2014

Change the Weather History Date:

Wednesday, March 5, 2014

  Actual Average (KCAG) Record (KCAG)
Temperature  
Mean Temperature 34 °F -  
Max Temperature 47 °F 36 °F 51 °F (2012)
Min Temperature 20 °F 11 °F -6 °F (1998)
Degree Days  
Heating Degree Days 32    
Moisture  
Dew Point 25 °F    
Average Humidity 74    
Maximum Humidity 96    
Minimum Humidity 37    
Precipitation  
Precipitation 0.00 in - - ()
Sea Level Pressure  
Sea Level Pressure 30.18 in    
Wind  
Wind Speed 3 mph (SSW)    
Max Wind Speed 17 mph    
Max Gust Speed 23 mph    
Visibility 10 miles    
Events      
Averages and records for this station are not official NWS values.
T = Trace of Precipitation, MM = Missing Value Source: NWS Daily Summary

Daily Weather History Graph

Daily Weather History Graph

Search for Another Location

Airport or City:

Trip Planner

Search our weather history database for the weather conditions in past years. The results will help you decide how hot, cold, wet, or windy it might be!

Date:

Astronomy

Mar. 05, 2014 Rise Set
Actual Time 6:37 AM MST 6:05 PM MST
Civil Twilight 6:10 AM MST 6:33 PM MST
Nautical Twilight 5:38 AM MST 7:05 PM MST
Astronomical Twilight 5:06 AM MST 7:37 PM MST
Moon 9:03 AM MST (3/5) 11:19 PM MST (3/5)
Length of Visible Light 12h 22m
Length of Day
11h 27m
Waxing Crescent, 24% of the Moon is Illuminated
Mar 5
Waxing Crescent
Mar 8
First Quarter
Mar 16
Full
Mar 23
Last Quarter
Mar 30
New

Hourly Weather History & Observations

Time (MST) Temp. Windchill Dew Point Humidity Pressure Visibility Wind Dir Wind Speed Gust Speed Precip Events Conditions
12:15 AM 23.7 °F - 22.5 °F 95% 30.13 in 10.0 mi Calm Calm - N/A   Scattered Clouds
12:35 AM 22.6 °F - 21.6 °F 96% 30.14 in 10.0 mi Calm Calm - N/A   Clear
12:55 AM 20.7 °F - 19.2 °F 94% 30.14 in 10.0 mi Calm Calm - N/A   Clear
1:15 AM 21.0 °F - 19.4 °F 93% 30.15 in 10.0 mi Calm Calm - N/A   Scattered Clouds
1:35 AM 22.8 °F - 21.6 °F 95% 30.15 in 10.0 mi Calm Calm - N/A   Overcast
1:55 AM 23.4 °F - 21.9 °F 94% 30.16 in 10.0 mi Calm Calm - N/A   Mostly Cloudy
2:15 AM 23.7 °F - 22.3 °F 94% 30.16 in 10.0 mi Calm Calm - N/A   Mostly Cloudy
2:35 AM 23.0 °F - 21.6 °F 94% 30.16 in 10.0 mi Calm Calm - N/A   Mostly Cloudy
2:55 AM 23.2 °F - 21.9 °F 95% 30.15 in 10.0 mi Calm Calm - N/A   Mostly Cloudy
3:15 AM 21.2 °F - 19.4 °F 93% 30.15 in 10.0 mi Calm Calm - N/A   Scattered Clouds
3:35 AM 20.7 °F - 19.0 °F 93% 30.15 in 10.0 mi Calm Calm - N/A   Clear
3:55 AM 20.8 °F - 19.2 °F 93% 30.15 in 10.0 mi Calm Calm - N/A   Clear
4:15 AM 22.3 °F - 20.5 °F 93% 30.15 in 10.0 mi Calm Calm - N/A   Clear
4:35 AM 21.9 °F - 19.9 °F 92% 30.15 in 10.0 mi Calm Calm - N/A   Scattered Clouds
4:55 AM 21.9 °F - 20.1 °F 93% 30.16 in 10.0 mi Calm Calm - N/A   Overcast
5:16 AM 23.9 °F - 22.3 °F 94% 30.17 in 10.0 mi Calm Calm - N/A   Mostly Cloudy
5:35 AM 21.6 °F - 19.9 °F 93% 30.18 in 10.0 mi Calm Calm - N/A   Scattered Clouds
5:55 AM 21.0 °F 16.2 °F 19.2 °F 93% 30.19 in 10.0 mi ENE 3.5 mph - N/A   Clear
6:15 AM 21.9 °F - 20.1 °F 93% 30.20 in 10.0 mi Calm Calm - N/A   Clear
6:35 AM 21.9 °F - 19.9 °F 92% 30.20 in 10.0 mi Calm Calm - N/A   Clear
6:55 AM 20.5 °F - 18.5 °F 92% 30.21 in 10.0 mi Calm Calm - N/A   Clear
7:15 AM 21.7 °F - 19.9 °F 93% 30.21 in 10.0 mi Calm Calm - N/A   Clear
7:35 AM 23.0 °F - 21.0 °F 92% 30.21 in 10.0 mi Calm Calm - N/A   Clear
7:55 AM 24.4 °F - 22.5 °F 92% 30.22 in 10.0 mi Calm Calm - N/A   Mostly Cloudy
8:15 AM 25.3 °F - 23.2 °F 91% 30.22 in 10.0 mi Calm Calm - N/A   Mostly Cloudy
8:35 AM 27.3 °F - 25.2 °F 92% 30.23 in 10.0 mi Calm Calm - N/A   Mostly Cloudy
8:55 AM 29.7 °F - 26.8 °F 89% 30.24 in 10.0 mi Calm Calm - N/A   Scattered Clouds
9:15 AM 30.2 °F - 27.7 °F 90% 30.24 in 10.0 mi Calm Calm - N/A   Scattered Clouds
9:35 AM 31.5 °F - 28.8 °F 90% 30.24 in 10.0 mi Calm Calm - N/A   Mostly Cloudy
9:55 AM 31.8 °F - 28.0 °F 86% 30.24 in 10.0 mi Calm Calm - N/A   Overcast
10:15 AM 33.6 °F - 29.1 °F 84% 30.25 in 10.0 mi Calm Calm - N/A   Overcast
10:35 AM 35.1 °F - 28.9 °F 78% 30.25 in 10.0 mi Calm Calm - N/A   Overcast
10:55 AM 35.8 °F - 30.0 °F 80% 30.25 in 10.0 mi Calm Calm - N/A   Overcast
11:15 AM 39.2 °F 31.2 °F 30.0 °F 70% 30.24 in 10.0 mi SSW 13.8 mph 18.4 mph N/A   Overcast
11:35 AM 39.7 °F 32.7 °F 30.9 °F 71% 30.23 in 10.0 mi SSW 11.5 mph - N/A   Scattered Clouds
11:55 AM 41.4 °F 34.3 °F 30.4 °F 65% 30.23 in 10.0 mi SSW 12.7 mph - N/A   Clear
12:15 PM 41.5 °F 35.0 °F 28.4 °F 60% 30.21 in 10.0 mi SW 11.5 mph - N/A   Clear
12:35 PM 43.0 °F 36.4 °F 28.9 °F 58% 30.21 in 10.0 mi SSW 12.7 mph 17.3 mph N/A   Clear
12:55 PM 42.8 °F 37.0 °F 29.1 °F 58% 30.20 in 10.0 mi SSW 10.4 mph - N/A   Mostly Cloudy
1:15 PM 43.3 °F 36.1 °F 29.8 °F 59% 30.19 in 10.0 mi South 15.0 mph 20.7 mph N/A   Mostly Cloudy
1:35 PM 44.6 °F 38.4 °F 29.1 °F 55% 30.18 in 10.0 mi SSW 12.7 mph 18.4 mph N/A   Overcast
1:55 PM 45.9 °F 40.4 °F 26.4 °F 47% 30.18 in 10.0 mi WSW 11.5 mph 18.4 mph N/A   Mostly Cloudy
2:15 PM 46.8 °F - 27.7 °F 47% 30.17 in 10.0 mi SW 13.8 mph 21.9 mph N/A   Scattered Clouds
2:35 PM 47.1 °F - 28.0 °F 48% 30.16 in 10.0 mi SSW 11.5 mph 19.6 mph N/A   Scattered Clouds
2:55 PM 46.9 °F - 27.0 °F 46% 30.15 in 10.0 mi SSW 13.8 mph 21.9 mph N/A   Clear
3:15 PM 47.1 °F - 25.3 °F 43% 30.15 in 10.0 mi SSW 9.2 mph 20.7 mph N/A   Clear
3:35 PM 47.3 °F - 25.9 °F 43% 30.15 in 10.0 mi South 17.3 mph 20.7 mph N/A   Clear
3:55 PM 47.3 °F - 25.3 °F 42% 30.14 in 10.0 mi South 12.7 mph 23.0 mph N/A   Clear
4:15 PM 46.9 °F - 23.0 °F 39% 30.14 in 10.0 mi SSW 13.8 mph - N/A   Clear
4:35 PM 46.6 °F - 22.6 °F 39% 30.14 in 10.0 mi SSW 12.7 mph 17.3 mph N/A   Clear
4:55 PM 46.6 °F - 22.6 °F 39% 30.14 in 10.0 mi SSW 15.0 mph 19.6 mph N/A   Clear
5:15 PM 45.9 °F 40.0 °F 20.7 °F 37% 30.14 in 10.0 mi SSW 12.7 mph 19.6 mph N/A   Clear
5:35 PM 45.5 °F 40.8 °F 25.0 °F 45% 30.14 in 10.0 mi SW 9.2 mph - N/A   Clear
5:55 PM 43.5 °F 38.3 °F 25.5 °F 49% 30.14 in 10.0 mi SW 9.2 mph - N/A   Clear
6:15 PM 42.8 °F 37.5 °F 25.9 °F 51% 30.14 in 10.0 mi SW 9.2 mph - N/A   Clear
6:35 PM 41.5 °F 37.1 °F 26.4 °F 55% 30.15 in 10.0 mi SSW 6.9 mph - N/A   Clear
6:55 PM 40.3 °F 35.5 °F 27.1 °F 59% 30.15 in 10.0 mi SW 6.9 mph - N/A   Clear
7:15 PM 38.8 °F 35.4 °F 27.3 °F 63% 30.15 in 10.0 mi SSW 4.6 mph - N/A   Clear
7:35 PM 37.9 °F - 27.3 °F 66% 30.16 in 10.0 mi Calm Calm - N/A   Clear
7:55 PM 35.1 °F - 28.0 °F 76% 30.15 in 10.0 mi Calm Calm - N/A   Scattered Clouds
8:15 PM 34.3 °F 31.4 °F 28.4 °F 79% 30.15 in 10.0 mi NNW 3.5 mph - N/A   Overcast
8:35 PM 34.3 °F 31.4 °F 27.9 °F 77% 30.16 in 10.0 mi NNW 3.5 mph - N/A   Mostly Cloudy
8:55 PM 38.5 °F - 25.7 °F 60% 30.16 in 10.0 mi Calm Calm - N/A   Clear
9:15 PM 36.1 °F - 26.8 °F 69% 30.16 in 10.0 mi Calm Calm - N/A   Clear
9:35 PM 35.1 °F - 27.0 °F 72% 30.16 in 10.0 mi Calm Calm - N/A   Clear
9:55 PM 33.8 °F - 27.0 °F 76% 30.17 in 10.0 mi Calm Calm - N/A   Clear
10:15 PM 34.5 °F - 26.4 °F 72% 30.18 in 10.0 mi Calm Calm - N/A   Scattered Clouds
10:35 PM 37.0 °F 34.5 °F 25.0 °F 62% 30.16 in 10.0 mi SW 3.5 mph - N/A   Scattered Clouds
10:55 PM 34.9 °F - 25.7 °F 69% 30.16 in 10.0 mi Calm Calm - N/A   Scattered Clouds
11:15 PM 32.9 °F - 26.2 °F 76% 30.16 in 10.0 mi Calm Calm - N/A   Clear
11:35 PM 32.9 °F - 26.1 °F 76% 30.16 in 10.0 mi Calm Calm - N/A   Clear
11:55 PM 33.6 °F - 25.9 °F 73% 30.16 in 10.0 mi Calm Calm - N/A   Clear